| time (UTC) | temp C | wind direction | speed KPH | gust KPH | rain 1hr cm | rain 24hr cm | rain mn cm | humidity % | barometer mb |
| 20260510121800 | -17 | 0 | 0.0 | 0.0 | 14.33 | 0.00 | 0.00 | 84 | 1025.6 |
| 20260510121300 | -17 | 359 | 1.6 | 9.7 | 14.33 | 0.00 | 0.00 | 83 | 1025.5 |
| 20260510120800 | -17 | 0 | 0.0 | 0.0 | 14.33 | 0.00 | 0.00 | 83 | 1025.5 |
| 20260510120300 | -17 | 0 | 0.0 | 0.0 | 14.33 | 0.00 | 0.00 | 85 | 1025.4 |
| 20260510115800 | -17 | 359 | 0.0 | 1.6 | 14.33 | 0.00 | 0.00 | 85 | 1025.3 |
| 20260510115300 | -17 | 0 | 0.0 | 0.0 | 14.33 | 0.00 | 0.00 | 86 | 1025.0 |
| 20260510114800 | -17 | 0 | 0.0 | 0.0 | 14.33 | 0.00 | 0.00 | 86 | 1025.2 |
| 20260510114300 | -17 | 0 | 0.0 | 0.0 | 14.33 | 0.00 | 0.00 | 85 | 1024.9 |
| 20260510113801 | -17 | 359 | 0.0 | 4.8 | 14.33 | 0.00 | 0.00 | 87 | 1024.8 |
| 20260510113300 | -17 | 0 | 0.0 | 0.0 | 14.33 | 0.00 | 0.00 | 88 | 1024.8 |
| 20260510112802 | -17 | 0 | 0.0 | 0.0 | 14.33 | 0.00 | 0.00 | 88 | 1024.7 |
| 20260510112300 | -17 | 0 | 0.0 | 0.0 | 14.33 | 0.00 | 0.00 | 88 | 1024.6 |
| 20260510111800 | -17 | 0 | 0.0 | 0.0 | 14.33 | 0.00 | 0.00 | 89 | 1024.5 |
| 20260510111301 | -17 | 0 | 0.0 | 0.0 | 14.33 | 0.00 | 0.00 | 89 | 1024.5 |
| 20260510110800 | -17 | 357 | 0.0 | 4.8 | 14.33 | 0.00 | 0.00 | 89 | 1024.5 |
| 20260510110300 | -17 | 0 | 0.0 | 0.0 | 14.33 | 0.00 | 0.00 | 89 | 1024.3 |
| 20260510105800 | -17 | 0 | 0.0 | 0.0 | 14.33 | 0.00 | 0.00 | 89 | 1024.2 |
| 20260510105300 | -17 | 0 | 0.0 | 0.0 | 14.33 | 0.00 | 0.00 | 89 | 1024.2 |
| 20260510104800 | -17 | 0 | 0.0 | 0.0 | 14.33 | 0.00 | 0.00 | 89 | 1024.1 |
| 20260510104300 | -17 | 0 | 0.0 | 0.0 | 14.33 | 0.00 | 0.00 | 89 | 1024.0 |
| 20260510103800 | -17 | 0 | 0.0 | 0.0 | 14.33 | 0.00 | 0.00 | 87 | 1023.9 |
| 20260510103300 | -17 | 0 | 0.0 | 0.0 | 14.33 | 0.00 | 0.00 | 88 | 1023.7 |
| 20260510102800 | -17 | 0 | 0.0 | 0.0 | 14.33 | 0.00 | 0.00 | 88 | 1023.6 |
| 20260510102300 | -17 | 0 | 0.0 | 0.0 | 14.33 | 0.00 | 0.00 | 88 | 1023.5 |
| 20260510101800 | -17 | 0 | 0.0 | 0.0 | 14.33 | 0.00 | 0.00 | 88 | 1023.5 |
| 20260510101300 | -17 | 0 | 0.0 | 0.0 | 14.33 | 0.00 | 0.00 | 88 | 1023.4 |
| 20260510100800 | -17 | 0 | 0.0 | 0.0 | 14.33 | 0.00 | 0.00 | 88 | 1023.1 |
| 20260510100300 | -17 | 0 | 0.0 | 0.0 | 14.33 | 0.00 | 0.00 | 88 | 1023.0 |
| 20260510095800 | -17 | 0 | 0.0 | 0.0 | 14.33 | 0.00 | 0.00 | 88 | 1022.9 |
| 20260510095300 | -17 | 0 | 0.0 | 0.0 | 14.33 | 0.00 | 0.00 | 88 | 1022.8 |
| 20260510094801 | -17 | 0 | 0.0 | 0.0 | 14.33 | 0.00 | 0.00 | 89 | 1022.6 |
| 20260510094635 | -17 | 0 | 0.0 | 0.0 | 14.33 | 0.00 | 0.00 | 90 | 1022.5 |
| 20260510094510 | -17 | 0 | 0.0 | 0.0 | 14.33 | 0.00 | 0.00 | 90 | 1022.5 |
| 20260510094438 | -17 | 0 | 0.0 | 0.0 | 14.33 | 0.00 | 0.00 | 90 | 1022.5 |
| 20260510094300 | -17 | 0 | 0.0 | 0.0 | 14.33 | 0.00 | 0.00 | 90 | 1022.5 |
| 20260510093800 | -17 | 0 | 0.0 | 0.0 | 14.33 | 0.00 | 0.00 | 90 | 1022.2 |
| 20260510093301 | -17 | 0 | 0.0 | 0.0 | 14.33 | 0.00 | 0.00 | 89 | 1022.1 |
| 20260510092800 | -17 | 0 | 0.0 | 0.0 | 14.33 | 0.00 | 0.00 | 88 | 1022.0 |
| 20260510092300 | -17 | 0 | 0.0 | 0.0 | 14.33 | 0.00 | 0.00 | 88 | 1021.9 |
| 20260510091800 | -17 | 0 | 0.0 | 0.0 | 14.33 | 0.00 | 0.00 | 89 | 1021.8 |
| 20260510091301 | -17 | 0 | 0.0 | 0.0 | 14.33 | 0.00 | 0.00 | 88 | 1021.7 |
| 20260510090800 | -17 | 0 | 0.0 | 0.0 | 14.33 | 0.00 | 0.00 | 88 | 1021.5 |
| 20260510090300 | -17 | 0 | 0.0 | 0.0 | 14.33 | 0.00 | 0.00 | 89 | 1021.4 |
| 20260510085800 | -17 | 0 | 0.0 | 0.0 | 14.33 | 0.00 | 0.00 | 88 | 1021.3 |
| 20260510085300 | -17 | 0 | 0.0 | 0.0 | 14.33 | 0.00 | 0.00 | 87 | 1021.2 |
| 20260510084801 | -17 | 0 | 0.0 | 0.0 | 14.33 | 0.00 | 0.00 | 87 | 1021.1 |
| 20260510084301 | -17 | 0 | 0.0 | 0.0 | 14.33 | 0.00 | 0.00 | 86 | 1021.1 |
| 20260510083800 | -17 | 0 | 0.0 | 0.0 | 14.33 | 0.00 | 0.00 | 84 | 1021.0 |
| 20260510083301 | -17 | 0 | 0.0 | 0.0 | 14.33 | 0.00 | 0.00 | 84 | 1021.0 |
| 20260510082800 | -17 | 0 | 0.0 | 0.0 | 14.33 | 0.00 | 0.00 | 84 | 1021.0 |
| 20260510082300 | -17 | 0 | 0.0 | 0.0 | 14.33 | 0.00 | 0.00 | 84 | 1020.9 |
| 20260510081800 | -17 | 0 | 0.0 | 0.0 | 14.33 | 0.00 | 0.00 | 84 | 1021.0 |
| 20260510081300 | -17 | 0 | 0.0 | 0.0 | 14.33 | 0.00 | 0.00 | 84 | 1020.9 |
| 20260510080800 | -17 | 0 | 0.0 | 0.0 | 14.33 | 0.00 | 0.00 | 83 | 1020.9 |
| 20260510080301 | -17 | 0 | 0.0 | 0.0 | 14.33 | 0.00 | 0.00 | 84 | 1020.9 |
| 20260510075800 | -17 | 0 | 0.0 | 0.0 | 14.33 | 0.00 | 0.00 | 84 | 1020.8 |
| 20260510075300 | -17 | 0 | 0.0 | 0.0 | 14.33 | 0.00 | 0.00 | 84 | 1020.7 |
| 20260510074800 | -17 | 0 | 0.0 | 0.0 | 14.33 | 0.00 | 0.00 | 84 | 1020.7 |
| 20260510074300 | -17 | 0 | 0.0 | 0.0 | 14.33 | 0.00 | 0.00 | 84 | 1020.6 |
| 20260510073801 | -17 | 0 | 0.0 | 0.0 | 14.33 | 0.00 | 0.00 | 83 | 1020.6 |
| 20260510073300 | -17 | 0 | 0.0 | 0.0 | 14.33 | 0.00 | 0.00 | 83 | 1020.5 |
| 20260510072800 | -17 | 0 | 0.0 | 0.0 | 14.33 | 0.00 | 0.00 | 83 | 1020.5 |
| 20260510072300 | -17 | 0 | 0.0 | 0.0 | 14.33 | 0.00 | 0.00 | 83 | 1020.4 |
| 20260510071800 | -17 | 0 | 0.0 | 0.0 | 14.33 | 0.00 | 0.00 | 83 | 1020.5 |
| 20260510071301 | -17 | 0 | 0.0 | 0.0 | 14.33 | 0.00 | 0.00 | 83 | 1020.5 |
| 20260510070801 | -17 | 0 | 0.0 | 0.0 | 14.33 | 0.00 | 0.00 | 82 | 1020.4 |
| 20260510070301 | -17 | 0 | 0.0 | 0.0 | 14.33 | 0.00 | 0.00 | 82 | 1020.4 |
| 20260510065800 | -17 | 0 | 0.0 | 0.0 | 14.33 | 0.00 | 0.00 | 82 | 1020.4 |
| 20260510065301 | -17 | 0 | 0.0 | 0.0 | 14.33 | 0.00 | 0.00 | 82 | 1020.4 |
| 20260510064801 | -17 | 0 | 0.0 | 0.0 | 14.33 | 0.00 | 0.00 | 82 | 1020.3 |
| 20260510064650 | -17 | 0 | 0.0 | 0.0 | 14.33 | 0.00 | 0.00 | 82 | 1020.2 |
| 20260510064510 | -17 | 0 | 0.0 | 0.0 | 14.33 | 0.00 | 0.00 | 82 | 1020.2 |
| 20260510064301 | -17 | 0 | 0.0 | 0.0 | 14.33 | 0.00 | 0.00 | 82 | 1020.2 |
| 20260510063801 | -17 | 0 | 0.0 | 0.0 | 14.33 | 0.00 | 0.00 | 81 | 1020.2 |
| 20260510063301 | -17 | 0 | 0.0 | 0.0 | 14.33 | 0.00 | 0.00 | 81 | 1020.2 |
| 20260510062803 | -17 | 0 | 0.0 | 0.0 | 14.33 | 0.00 | 0.00 | 81 | 1020.2 |
| 20260510062301 | -17 | 0 | 0.0 | 0.0 | 14.33 | 0.00 | 0.00 | 80 | 1020.1 |
| 20260510061801 | -17 | 0 | 0.0 | 0.0 | 14.33 | 0.00 | 0.00 | 80 | 1020.0 |
| 20260510061644 | -17 | 0 | 0.0 | 0.0 | 14.33 | 0.00 | 0.00 | 79 | 1019.9 |
| 20260510061509 | -17 | 0 | 0.0 | 0.0 | 14.33 | 0.00 | 0.00 | 79 | 1019.9 |
| 20260510061301 | -17 | 0 | 0.0 | 0.0 | 14.33 | 0.00 | 0.00 | 79 | 1019.9 |
| 20260510060802 | -17 | 0 | 0.0 | 0.0 | 14.33 | 0.00 | 0.00 | 78 | 1019.8 |
| 20260510060301 | -17 | 0 | 0.0 | 0.0 | 14.33 | 0.00 | 0.00 | 79 | 1019.8 |
| 20260510055801 | -17 | 0 | 0.0 | 0.0 | 14.33 | 0.00 | 0.00 | 79 | 1019.8 |
| 20260510055301 | -17 | 0 | 0.0 | 0.0 | 14.33 | 0.00 | 0.00 | 80 | 1019.6 |
| 20260510054801 | -17 | 0 | 0.0 | 0.0 | 14.33 | 0.00 | 0.00 | 79 | 1019.6 |
| 20260510054301 | -17 | 0 | 0.0 | 0.0 | 14.33 | 0.00 | 0.00 | 80 | 1019.4 |
| 20260510053801 | -17 | 0 | 0.0 | 0.0 | 14.33 | 0.00 | 0.00 | 79 | 1019.3 |
| 20260510053301 | -48 | 0 | 0.0 | 0.0 | 14.33 | 0.00 | 0.00 | 78 | 1019.2 |
| 20260510052801 | -48 | 0 | 0.0 | 0.0 | 14.33 | 0.00 | 0.00 | 78 | 1019.2 |
| 20260510052301 | -17 | 0 | 0.0 | 0.0 | 14.33 | 0.00 | 0.00 | 76 | 1019.2 |
| 20260510051837 | -17 | 0 | 0.0 | 0.0 | 14.33 | 0.00 | 0.00 | 76 | 1019.2 |
| 20260510051801 | -17 | 0 | 0.0 | 0.0 | 14.33 | 0.00 | 0.00 | 76 | 1019.2 |
| 20260510051301 | -17 | 0 | 0.0 | 0.0 | 14.33 | 0.00 | 0.00 | 75 | 1019.0 |
| 20260510050801 | -48 | 0 | 0.0 | 0.0 | 14.33 | 0.00 | 0.00 | 74 | 1018.9 |
| 20260510050301 | -45 | 0 | 0.0 | 0.0 | 14.33 | 0.00 | 0.00 | 74 | 1018.6 |
| 20260510045801 | -45 | 0 | 0.0 | 0.0 | 14.33 | 0.00 | 0.00 | 73 | 1018.6 |
| 20260510045301 | -46 | 0 | 0.0 | 0.0 | 14.33 | 0.00 | 0.00 | 72 | 1018.3 |
| 20260510044801 | -45 | 0 | 0.0 | 0.0 | 14.33 | 0.00 | 0.00 | 71 | 1018.2 |
| 20260510044301 | -36 | 0 | 0.0 | 0.0 | 14.33 | 0.00 | 0.00 | 72 | 1018.2 |
| 20260510043801 | -32 | 0 | 0.0 | 0.0 | 14.33 | 0.00 | 0.00 | 71 | 1018.3 |
| 20260510043301 | -31 | 0 | 0.0 | 0.0 | 14.33 | 0.00 | 0.00 | 72 | 1018.3 |
| 20260510042801 | -37 | 356 | 0.0 | 4.8 | 14.33 | 0.00 | 0.00 | 72 | 1018.1 |
| 20260510042301 | -37 | 0 | 0.0 | 0.0 | 14.33 | 0.00 | 0.00 | 74 | 1018.0 |
| 20260510041801 | -37 | 0 | 0.0 | 0.0 | 14.33 | 0.00 | 0.00 | 74 | 1018.0 |
| 20260510041302 | -36 | 0 | 0.0 | 0.0 | 14.33 | 0.00 | 0.00 | 74 | 1017.7 |
| 20260510040803 | -37 | 0 | 0.0 | 0.0 | 14.33 | 0.00 | 0.00 | 74 | 1018.2 |
| 20260510040301 | -35 | 0 | 0.0 | 0.0 | 14.33 | 0.00 | 0.00 | 74 | 1018.2 |
| 20260510035801 | -36 | 0 | 0.0 | 0.0 | 14.33 | 0.00 | 0.00 | 74 | 1018.1 |
| 20260510035305 | -35 | 0 | 0.0 | 0.0 | 14.33 | 0.00 | 0.00 | 75 | 1018.1 |
| 20260510034801 | -36 | 0 | 0.0 | 0.0 | 14.33 | 0.00 | 0.00 | 74 | 1017.7 |
| 20260510034303 | -36 | 0 | 0.0 | 0.0 | 14.33 | 0.00 | 0.00 | 75 | 1017.6 |
| 20260510033801 | -37 | 0 | 0.0 | 0.0 | 14.33 | 0.00 | 0.00 | 74 | 1017.6 |
| 20260510033301 | -37 | 0 | 0.0 | 0.0 | 14.33 | 0.00 | 0.00 | 74 | 1017.8 |
| 20260510032802 | -37 | 0 | 0.0 | 0.0 | 14.33 | 0.00 | 0.00 | 74 | 1017.5 |
| 20260510032301 | -36 | 0 | 0.0 | 0.0 | 14.33 | 0.00 | 0.00 | 72 | 1017.5 |
| 20260510031801 | -33 | 0 | 0.0 | 0.0 | 14.33 | 0.00 | 0.00 | 72 | 1017.5 |
| 20260510031504 | -35 | 0 | 0.0 | 0.0 | 14.33 | 0.00 | 0.00 | 71 | 1017.4 |
| 20260510031301 | -35 | 0 | 0.0 | 0.0 | 14.33 | 0.00 | 0.00 | 71 | 1017.4 |
| 20260510030801 | -35 | 0 | 0.0 | 0.0 | 14.33 | 0.00 | 0.00 | 71 | 1017.3 |
| 20260510030301 | -30 | 0 | 0.0 | 0.0 | 14.33 | 0.00 | 0.00 | 70 | 1017.2 |
| 20260510025801 | -31 | 0 | 0.0 | 0.0 | 14.33 | 0.00 | 0.00 | 69 | 1016.8 |
| 20260510025301 | -27 | 0 | 0.0 | 0.0 | 14.33 | 0.00 | 0.00 | 70 | 1016.7 |
| 20260510024801 | -25 | 0 | 0.0 | 0.0 | 14.33 | 0.00 | 0.00 | 69 | 1016.5 |
| 20260510024301 | -25 | 0 | 0.0 | 0.0 | 14.33 | 0.00 | 0.00 | 69 | 1016.4 |
| 20260510023802 | 14 | 0 | 0.0 | 0.0 | 14.33 | 0.00 | 0.00 | 72 | 1016.5 |
| 20260510023303 | -30 | 0 | 0.0 | 0.0 | 14.33 | 0.00 | 0.00 | 73 | 1016.4 |
| 20260510022801 | -37 | 0 | 0.0 | 0.0 | 14.33 | 0.00 | 0.00 | 72 | 1016.4 |
| 20260510022306 | -33 | 0 | 0.0 | 0.0 | 14.33 | 0.00 | 0.00 | 69 | 1016.2 |
| 20260510021802 | -33 | 0 | 0.0 | 0.0 | 14.33 | 0.00 | 0.00 | 73 | 1015.9 |
| 20260510021302 | -34 | 0 | 0.0 | 0.0 | 14.33 | 0.00 | 0.00 | 75 | 1015.6 |
| 20260510020801 | -36 | 0 | 0.0 | 0.0 | 14.33 | 0.00 | 0.00 | 79 | 1015.6 |
| 20260510020301 | -31 | 0 | 0.0 | 0.0 | 14.33 | 0.00 | 0.00 | 79 | 1015.8 |
| 20260510015801 | -33 | 0 | 0.0 | 0.0 | 14.33 | 0.00 | 0.00 | 79 | 1015.9 |
| 20260510015301 | -33 | 0 | 0.0 | 0.0 | 14.33 | 0.00 | 0.00 | 80 | 1015.7 |
| 20260510014801 | -28 | 0 | 0.0 | 0.0 | 14.33 | 0.00 | 0.00 | 80 | 1015.7 |
| 20260510014301 | -30 | 0 | 0.0 | 0.0 | 14.33 | 0.00 | 0.00 | 81 | 1015.7 |
| 20260510013801 | -36 | 347 | 0.0 | 3.2 | 14.33 | 0.00 | 0.00 | 79 | 1015.4 |
| 20260510013301 | -27 | 359 | 0.0 | 4.8 | 14.33 | 0.00 | 0.00 | 77 | 1015.2 |
| 20260510012801 | -28 | 290 | 1.6 | 4.8 | 14.33 | 0.00 | 0.00 | 75 | 1015.0 |
| 20260510012306 | -35 | 290 | 1.6 | 9.7 | 14.33 | 0.00 | 0.00 | 74 | 1014.8 |
| 20260510011801 | -28 | 0 | 0.0 | 0.0 | 14.33 | 0.00 | 0.00 | 74 | 1014.8 |
| 20260510011302 | -33 | 0 | 0.0 | 0.0 | 14.33 | 0.00 | 0.00 | 78 | 1014.7 |
| 20260510010801 | -28 | 0 | 0.0 | 0.0 | 14.33 | 0.00 | 0.00 | 86 | 1014.5 |
| 20260510010302 | -31 | 0 | 0.0 | 0.0 | 14.33 | 0.00 | 0.00 | 89 | 1014.4 |
| 20260510005801 | -33 | 0 | 0.0 | 0.0 | 14.33 | 0.00 | 0.00 | 90 | 1014.2 |
| 20260510005301 | -33 | 0 | 0.0 | 0.0 | 14.33 | 0.00 | 0.00 | 90 | 1014.0 |
| 20260510004803 | -30 | 0 | 0.0 | 0.0 | 14.33 | 0.00 | 0.00 | 90 | 1013.8 |
| 20260510004524 | -28 | 0 | 0.0 | 0.0 | 14.33 | 0.00 | 0.00 | 90 | 1013.8 |
| 20260510004301 | -28 | 0 | 0.0 | 0.0 | 14.33 | 0.00 | 0.00 | 90 | 1013.8 |
| 20260510003801 | -25 | 0 | 0.0 | 0.0 | 14.33 | 0.00 | 0.00 | 89 | 1013.6 |
| 20260510003301 | -26 | 0 | 0.0 | 0.0 | 14.33 | 0.00 | 0.00 | 90 | 1013.4 |
| 20260510002802 | -26 | 0 | 0.0 | 0.0 | 14.33 | 0.00 | 0.00 | 90 | 1013.4 |
| 20260510002301 | -23 | 0 | 0.0 | 0.0 | 14.33 | 0.00 | 0.00 | 90 | 1013.5 |
| 20260510001801 | -28 | 0 | 0.0 | 0.0 | 14.33 | 0.00 | 0.00 | 90 | 1013.4 |
| 20260510001301 | -25 | 0 | 0.0 | 0.0 | 14.33 | 0.00 | 0.00 | 90 | 1013.4 |
| 20260510000801 | -26 | 0 | 0.0 | 0.0 | 14.33 | 0.00 | 0.00 | 89 | 1013.3 |
| 20260510000304 | -18 | 0 | 0.0 | 0.0 | 14.33 | 0.00 | 0.00 | 89 | 1013.2 |
| 20260509235801 | -22 | 0 | 0.0 | 0.0 | 14.33 | 0.00 | 0.00 | 90 | 1013.2 |
| 20260509235306 | -20 | 0 | 0.0 | 0.0 | 14.33 | 0.00 | 0.00 | 89 | 1013.2 |
| 20260509234801 | -25 | 0 | 0.0 | 0.0 | 14.33 | 0.00 | 0.00 | 89 | 1013.1 |
| 20260509234302 | -26 | 0 | 0.0 | 0.0 | 14.33 | 0.00 | 0.00 | 90 | 1013.0 |
| 20260509233801 | -26 | 0 | 0.0 | 0.0 | 14.33 | 0.00 | 0.00 | 89 | 1012.8 |
| 20260509233302 | -26 | 0 | 0.0 | 0.0 | 14.33 | 0.00 | 0.00 | 88 | 1012.9 |
| 20260509232802 | -26 | 0 | 0.0 | 0.0 | 14.33 | 0.00 | 0.00 | 87 | 1012.7 |
| 20260509232305 | -26 | 0 | 0.0 | 0.0 | 14.33 | 0.00 | 0.00 | 87 | 1012.7 |
| 20260509231802 | -23 | 0 | 0.0 | 0.0 | 14.33 | 0.00 | 0.00 | 87 | 1012.7 |
| 20260509231333 | -25 | 0 | 0.0 | 0.0 | 14.33 | 0.00 | 0.00 | 87 | 1012.6 |
| 20260509231302 | -25 | 0 | 0.0 | 0.0 | 14.33 | 0.00 | 0.00 | 87 | 1012.6 |
| 20260509230802 | -25 | 0 | 0.0 | 0.0 | 14.33 | 0.00 | 0.00 | 88 | 1012.5 |
| 20260509230301 | -25 | 0 | 0.0 | 0.0 | 14.33 | 0.00 | 0.00 | 88 | 1012.4 |
| 20260509225802 | -21 | 0 | 0.0 | 0.0 | 14.33 | 0.00 | 0.00 | 89 | 1012.4 |
| 20260509225305 | -25 | 0 | 0.0 | 0.0 | 14.33 | 0.00 | 0.00 | 90 | 1012.2 |
| 20260509224802 | -27 | 0 | 0.0 | 0.0 | 14.33 | 0.00 | 0.00 | 89 | 1012.2 |
| 20260509224302 | -26 | 0 | 0.0 | 0.0 | 14.33 | 0.00 | 0.00 | 90 | 1012.2 |
| 20260509223802 | -26 | 0 | 0.0 | 0.0 | 14.33 | 0.00 | 0.00 | 91 | 1012.1 |
| 20260509223302 | -24 | 0 | 0.0 | 0.0 | 14.33 | 0.00 | 0.00 | 90 | 1012.0 |
| 20260509222802 | -27 | 0 | 0.0 | 0.0 | 14.33 | 0.00 | 0.00 | 89 | 1012.0 |
| 20260509222306 | -26 | 0 | 0.0 | 0.0 | 14.33 | 0.00 | 0.00 | 90 | 1012.0 |
| 20260509221802 | -25 | 0 | 0.0 | 0.0 | 14.33 | 0.00 | 0.00 | 90 | 1012.1 |
| 20260509221302 | -25 | 0 | 0.0 | 0.0 | 14.33 | 0.00 | 0.00 | 90 | 1012.1 |
| 20260509220802 | -26 | 0 | 0.0 | 0.0 | 14.33 | 0.00 | 0.00 | 88 | 1012.0 |
| 20260509220302 | -26 | 0 | 0.0 | 0.0 | 14.33 | 0.00 | 0.00 | 89 | 1011.9 |
| 20260509215802 | -26 | 0 | 0.0 | 0.0 | 14.33 | 0.00 | 0.00 | 89 | 1011.8 |
| 20260509215305 | -21 | 0 | 0.0 | 0.0 | 14.33 | 0.00 | 0.00 | 91 | 1011.8 |
| 20260509214803 | -21 | 290 | 1.6 | 11.3 | 14.33 | 0.00 | 0.00 | 91 | 1011.9 |
| 20260509214303 | -20 | 0 | 0.0 | 0.0 | 14.33 | 0.00 | 0.00 | 91 | 1012.0 |
| 20260509213802 | -21 | 0 | 0.0 | 0.0 | 14.33 | 0.00 | 0.00 | 90 | 1011.9 |
| 20260509213303 | -20 | 0 | 0.0 | 0.0 | 14.33 | 0.00 | 0.00 | 91 | 1011.9 |
| 20260509212802 | -20 | 0 | 0.0 | 0.0 | 14.33 | 0.00 | 0.00 | 90 | 1011.9 |
| 20260509212305 | -8 | 0 | 0.0 | 0.0 | 14.33 | 0.00 | 0.00 | 92 | 1011.9 |
| 20260509211802 | -8 | 0 | 0.0 | 0.0 | 14.33 | 0.00 | 0.00 | 97 | 1011.9 |
| 20260509211304 | -4 | 273 | 1.6 | 17.7 | 14.33 | 0.00 | 0.00 | 98 | 1012.0 |
| 20260509210804 | -20 | 280 | 0.0 | 6.4 | 14.33 | 0.00 | 0.00 | 99 | 1011.8 |
| 20260509210302 | -19 | 0 | 0.0 | 0.0 | 14.33 | 0.00 | 0.00 | 98 | 1011.9 |
| 20260509205802 | -7 | 0 | 0.0 | 0.0 | 14.33 | 0.00 | 0.00 | 98 | 1012.2 |
| 20260509205306 | -6 | 0 | 0.0 | 0.0 | 14.33 | 0.00 | 0.00 | 98 | 1012.3 |
| 20260509204802 | 0 | 252 | 17.7 | 32.2 | 14.33 | 0.00 | 0.00 | 98 | 1012.5 |
| 20260509204302 | 12 | 359 | 1.6 | 11.3 | 14.33 | 0.00 | 0.00 | 96 | 1012.6 |
| 20260509203802 | 13 | 0 | 0.0 | 0.0 | 14.33 | 0.00 | 0.00 | 96 | 1012.1 |
| 20260509203302 | 13 | 89 | 30.6 | 49.9 | 14.33 | 0.00 | 0.00 | 90 | 1012.1 |
| 20260509202802 | 12 | 359 | 29.0 | 43.5 | 14.33 | 0.00 | 0.00 | 82 | 1011.5 |
| 20260509202306 | 11 | 211 | 22.5 | 48.3 | 14.33 | 0.00 | 0.00 | 81 | 1011.5 |
| 20260509201803 | 8 | 359 | 29.0 | 46.7 | 14.33 | 0.00 | 0.00 | 80 | 1011.5 |
| 20260509201302 | 8 | 125 | 32.2 | 45.1 | 14.33 | 0.00 | 0.00 | 84 | 1011.4 |
| 20260509200802 | 13 | 359 | 14.5 | 46.7 | 14.33 | 0.00 | 0.00 | 83 | 1011.2 |
| 20260509200302 | 14 | 359 | 14.5 | 46.7 | 14.33 | 0.00 | 0.00 | 81 | 1011.5 |
| 20260509195802 | 15 | 332 | 24.1 | 41.8 | 14.33 | 0.00 | 0.00 | 83 | 1011.8 |
| 20260509195306 | 8 | 203 | 32.2 | 53.1 | 14.33 | 0.00 | 0.00 | 84 | 1011.8 |
| 20260509194802 | 8 | 218 | 30.6 | 40.2 | 14.33 | 0.00 | 0.00 | 86 | 1011.8 |
| 20260509194302 | 8 | 8 | 20.9 | 43.5 | 14.33 | 0.00 | 0.00 | 88 | 1011.8 |
| 20260509193802 | 8 | 225 | 27.4 | 45.1 | 14.33 | 0.00 | 0.00 | 88 | 1012.0 |
| 20260509193302 | -29 | 359 | 17.7 | 41.8 | 14.33 | 0.00 | 0.00 | 90 | 1012.1 |
| 20260509192802 | -30 | 188 | 19.3 | 40.2 | 14.33 | 0.00 | 0.00 | 91 | 1012.0 |
| 20260509192305 | -29 | 0 | 0.0 | 0.0 | 14.33 | 0.00 | 0.00 | 90 | 1012.2 |
| 20260509191802 | -26 | 179 | 22.5 | 37.0 | 14.33 | 0.00 | 0.00 | 89 | 1012.3 |
| 20260509191302 | -27 | 221 | 27.4 | 40.2 | 14.33 | 0.00 | 0.00 | 92 | 1012.5 |
| 20260509190802 | -7 | 238 | 19.3 | 32.2 | 14.33 | 0.00 | 0.00 | 92 | 1012.6 |
| 20260509190303 | -31 | 0 | 0.0 | 0.0 | 14.33 | 0.00 | 0.00 | 93 | 1012.4 |
| 20260509185802 | -2 | 208 | 17.7 | 37.0 | 14.33 | 0.00 | 0.00 | 92 | 1012.5 |
| 20260509185306 | -32 | 0 | 0.0 | 0.0 | 14.33 | 0.00 | 0.00 | 91 | 1012.8 |
| 20260509184802 | -26 | 257 | 27.4 | 45.1 | 14.33 | 0.00 | 0.00 | 87 | 1012.7 |
| 20260509184303 | -29 | 249 | 9.7 | 33.8 | 14.33 | 0.00 | 0.00 | 77 | 1013.0 |
| 20260509183803 | -32 | 201 | 17.7 | 40.2 | 14.33 | 0.00 | 0.00 | 78 | 1013.2 |
| 20260509183302 | -30 | 207 | 1.6 | 17.7 | 14.33 | 0.00 | 0.00 | 75 | 1013.1 |
| 20260509182802 | -29 | 0 | 0.0 | 0.0 | 14.33 | 0.00 | 0.00 | 77 | 1013.1 |
| 20260509182306 | -28 | 0 | 0.0 | 0.0 | 14.33 | 0.00 | 0.00 | 75 | 1013.2 |
| 20260509181803 | -21 | 0 | 0.0 | 0.0 | 14.33 | 0.00 | 0.00 | 77 | 1013.3 |
| 20260509181303 | 15 | 0 | 0.0 | 0.0 | 14.33 | 0.00 | 0.00 | 77 | 1013.3 |
| 20260509180802 | -22 | 0 | 0.0 | 0.0 | 14.33 | 0.00 | 0.00 | 78 | 1013.2 |
| 20260509180302 | -22 | 0 | 0.0 | 0.0 | 14.33 | 0.00 | 0.00 | 77 | 1013.4 |
| 20260509175803 | -22 | 0 | 0.0 | 0.0 | 14.40 | 0.00 | 0.00 | 75 | 1013.4 |
| 20260509175306 | -16 | 0 | 0.0 | 0.0 | 14.33 | 0.00 | 0.00 | 73 | 1013.2 |
| 20260509174802 | -15 | 0 | 0.0 | 0.0 | 14.33 | 0.00 | 0.00 | 70 | 1013.2 |
| 20260509174302 | -12 | 205 | 9.7 | 27.4 | 14.33 | 0.00 | 0.00 | 73 | 1013.2 |
| 20260509173803 | -14 | 159 | 17.7 | 30.6 | 14.33 | 0.00 | 0.00 | 71 | 1013.1 |
| 20260509173302 | -32 | 359 | 19.3 | 32.2 | 14.33 | 0.00 | 0.00 | 72 | 1013.4 |
| 20260509172802 | -35 | 180 | 4.8 | 32.2 | 14.33 | 0.00 | 0.00 | 73 | 1013.7 |
| 20260509171303 | -35 | 195 | 3.2 | 22.5 | 14.33 | 0.00 | 0.00 | 72 | 1013.8 |
| 20260509170802 | -41 | 200 | 1.6 | 11.3 | 14.33 | 0.00 | 0.00 | 76 | 1013.8 |
| 20260509170303 | -38 | 0 | 0.0 | 0.0 | 14.33 | 0.00 | 0.00 | 77 | 1013.9 |
| 20260509165802 | -40 | 0 | 0.0 | 0.0 | 14.33 | 0.00 | 0.00 | 77 | 1013.9 |
| 20260509165306 | -37 | 0 | 0.0 | 0.0 | 14.33 | 0.00 | 0.00 | 78 | 1014.2 |
| 20260509164803 | -41 | 0 | 0.0 | 0.0 | 14.33 | 0.00 | 0.00 | 80 | 1014.2 |
| 20260509164303 | -42 | 0 | 0.0 | 0.0 | 14.33 | 0.00 | 0.00 | 80 | 1014.5 |
| 20260509163803 | -27 | 184 | 4.8 | 17.7 | 14.33 | 0.00 | 0.00 | 85 | 1014.9 |
| 20260509163302 | -32 | 0 | 0.0 | 0.0 | 14.33 | 0.00 | 0.00 | 88 | 1015.1 |
| 20260509162803 | -32 | 0 | 0.0 | 0.0 | 14.33 | 0.00 | 0.00 | 84 | 1015.3 |
| 20260509162306 | -32 | 0 | 0.0 | 0.0 | 14.33 | 0.00 | 0.00 | 85 | 1015.5 |
| 20260509161803 | -31 | 0 | 0.0 | 0.0 | 14.33 | 0.00 | 0.00 | 85 | 1015.5 |
| 20260509161303 | -33 | 0 | 0.0 | 0.0 | 14.33 | 0.00 | 0.00 | 84 | 1015.6 |
| 20260509160804 | -34 | 0 | 0.0 | 0.0 | 14.33 | 0.00 | 0.00 | 83 | 1015.5 |
| 20260509160303 | -30 | 0 | 0.0 | 0.0 | 14.33 | 0.00 | 0.00 | 84 | 1015.6 |
| 20260509155803 | -29 | 256 | 4.8 | 22.5 | 14.33 | 0.00 | 0.00 | 85 | 1015.7 |
| 20260509155306 | -31 | 0 | 0.0 | 0.0 | 14.33 | 0.00 | 0.00 | 90 | 1015.5 |
| 20260509154803 | -21 | 0 | 0.0 | 0.0 | 14.33 | 0.00 | 0.00 | 87 | 1015.5 |
| 20260509154303 | -24 | 283 | 1.6 | 14.5 | 14.33 | 0.00 | 0.00 | 91 | 1015.4 |
| 20260509153803 | -21 | 0 | 0.0 | 0.0 | 14.33 | 0.00 | 0.00 | 91 | 1015.4 |
| 20260509153303 | -13 | 0 | 0.0 | 0.0 | 14.33 | 0.00 | 0.00 | 91 | 1015.5 |
| 20260509152803 | -3 | 0 | 0.0 | 0.0 | 14.33 | 0.00 | 0.00 | 91 | 1015.6 |
| 20260509152306 | -17 | 250 | 19.3 | 32.2 | 14.33 | 0.00 | 0.00 | 91 | 1015.7 |
| 20260509151804 | -21 | 198 | 20.9 | 33.8 | 14.33 | 0.00 | 0.00 | 90 | 1015.6 |
| 20260509151303 | -21 | 0 | 0.0 | 0.0 | 14.33 | 0.00 | 0.00 | 91 | 1015.4 |
| 20260509150803 | -22 | 0 | 0.0 | 0.0 | 14.33 | 0.00 | 0.00 | 94 | 1015.5 |
| 20260509150303 | -21 | 222 | 4.8 | 19.3 | 14.33 | 0.00 | 0.00 | 95 | 1015.6 |
| 20260509145804 | -21 | 211 | 9.7 | 24.1 | 14.33 | 0.00 | 0.00 | 96 | 1015.7 |
| 20260509145306 | -21 | 214 | 0.0 | 11.3 | 14.33 | 0.00 | 0.00 | 97 | 1015.9 |
| 20260509144803 | -21 | 198 | 12.9 | 30.6 | 14.33 | 0.00 | 0.00 | 98 | 1015.9 |
| 20260509144303 | -20 | 0 | 0.0 | 0.0 | 14.33 | 0.00 | 0.00 | 99 | 1015.7 |
| 20260509143803 | -20 | 0 | 0.0 | 0.0 | 14.33 | 0.00 | 0.00 | 98 | 1015.8 |
| 20260509143303 | -19 | 0 | 0.0 | 0.0 | 14.33 | 0.00 | 0.00 | 100 | 1015.9 |
| 20260509142805 | -19 | 0 | 0.0 | 0.0 | 14.33 | 0.00 | 0.00 | 100 | 1015.9 |
| 20260509142306 | -19 | 0 | 0.0 | 0.0 | 14.33 | 0.00 | 0.00 | 100 | 1015.8 |
| 20260509141803 | -17 | 0 | 0.0 | 0.0 | 14.33 | 0.00 | 0.00 | 100 | 1015.9 |
| 20260509141303 | -6 | 0 | 0.0 | 0.0 | 14.33 | 0.00 | 0.00 | 100 | 1015.9 |
| 20260509140803 | -18 | 0 | 0.0 | 0.0 | 14.33 | 0.00 | 0.00 | 100 | 1016.0 |
| 20260509140303 | -19 | 0 | 0.0 | 0.0 | 14.33 | 0.00 | 0.00 | 100 | 1016.3 |
| 20260509135803 | -19 | 0 | 0.0 | 0.0 | 14.33 | 0.00 | 0.00 | 100 | 1015.8 |
| 20260509135306 | -20 | 0 | 0.0 | 0.0 | 14.33 | 0.00 | 0.00 | 100 | 1016.2 |
| 20260509134803 | -19 | 0 | 0.0 | 0.0 | 14.33 | 0.00 | 0.00 | 100 | 1016.0 |
| 20260509134308 | -18 | 0 | 0.0 | 0.0 | 14.33 | 0.00 | 0.00 | 100 | 1015.8 |
| 20260509133803 | -18 | 0 | 0.0 | 0.0 | 14.33 | 0.00 | 0.00 | 100 | 1015.9 |
| 20260509133303 | -18 | 0 | 0.0 | 0.0 | 14.33 | 0.00 | 0.00 | 100 | 1016.1 |
| 20260509132804 | -21 | 0 | 0.0 | 0.0 | 14.33 | 0.00 | 0.00 | 100 | 1016.0 |
| 20260509132306 | -21 | 0 | 0.0 | 0.0 | 14.33 | 0.00 | 0.00 | 100 | 1016.1 |
| 20260509131803 | -20 | 0 | 0.0 | 0.0 | 14.33 | 0.00 | 0.00 | 100 | 1016.1 |
| 20260509131303 | -21 | 0 | 0.0 | 0.0 | 14.33 | 0.00 | 0.00 | 98 | 1016.1 |
| 20260509130803 | -20 | 0 | 0.0 | 0.0 | 14.33 | 0.00 | 0.00 | 99 | 1016.1 |
| 20260509130304 | -20 | 0 | 0.0 | 0.0 | 14.33 | 0.00 | 0.00 | 98 | 1016.2 |
| 20260509125805 | -18 | 0 | 0.0 | 0.0 | 14.33 | 0.00 | 0.00 | 99 | 1016.1 |
| 20260509125308 | -20 | 0 | 0.0 | 0.0 | 14.33 | 0.00 | 0.00 | 99 | 1016.1 |
| 20260509124803 | -21 | 0 | 0.0 | 0.0 | 14.33 | 0.00 | 0.00 | 99 | 1016.2 |
| 20260509124303 | -21 | 0 | 0.0 | 0.0 | 14.33 | 0.00 | 0.00 | 100 | 1016.5 |
| 20260509123803 | -21 | 0 | 0.0 | 0.0 | 14.33 | 0.00 | 0.00 | 100 | 1016.5 |
| 20260509123303 | -21 | 0 | 0.0 | 0.0 | 14.33 | 0.00 | 0.00 | 100 | 1016.2 |
| 20260509122804 | -21 | 0 | 0.0 | 0.0 | 14.33 | 0.00 | 0.00 | 100 | 1016.4 |
| 20260509122306 | -21 | 0 | 0.0 | 0.0 | 14.33 | 0.00 | 0.00 | 100 | 1016.4 |